Year,Month,Day,Hour,Minute,Value (Times are PST for temperature in C)
2011,08,23,00,00,16.40
2011,08,23,00,01,16.40
2011,08,23,00,02,16.40
2011,08,23,00,03,16.40
2011,08,23,00,04,16.40
2011,08,23,00,05,16.40
2011,08,23,00,06,16.40
2011,08,23,00,07,16.40
2011,08,23,00,08,16.40
2011,08,23,00,09,16.40
2011,08,23,00,10,16.40
2011,08,23,00,11,16.40
2011,08,23,00,12,16.40
2011,08,23,00,13,16.50
2011,08,23,00,14,16.50
2011,08,23,00,15,16.50
2011,08,23,00,16,16.60
2011,08,23,00,17,16.60
2011,08,23,00,18,16.60
2011,08,23,00,19,16.70
2011,08,23,00,20,16.70
2011,08,23,00,21,16.70
2011,08,23,00,22,16.80
2011,08,23,00,23,16.80
2011,08,23,00,24,16.90
2011,08,23,00,25,16.90
2011,08,23,00,26,17.00
2011,08,23,00,27,17.00
2011,08,23,00,28,17.10
2011,08,23,00,29,17.10
2011,08,23,00,30,17.10
2011,08,23,00,31,17.10
2011,08,23,00,32,17.20
2011,08,23,00,33,17.20
2011,08,23,00,34,17.20
2011,08,23,00,35,17.20
2011,08,23,00,36,17.20
2011,08,23,00,37,17.20
2011,08,23,00,38,17.20
2011,08,23,00,39,17.20
2011,08,23,00,40,17.20
2011,08,23,00,41,17.20
2011,08,23,00,42,17.20
2011,08,23,00,43,17.20
2011,08,23,00,44,17.20
2011,08,23,00,45,17.20
2011,08,23,00,46,17.20
2011,08,23,00,47,17.20
2011,08,23,00,48,17.20
2011,08,23,00,49,17.20
2011,08,23,00,50,17.10
2011,08,23,00,51,17.10
2011,08,23,00,52,17.10
2011,08,23,00,53,17.10
2011,08,23,00,54,17.10
2011,08,23,00,55,17.10
2011,08,23,00,56,17.10
2011,08,23,00,57,17.10
2011,08,23,00,58,17.10
2011,08,23,00,59,17.10
2011,08,23,01,00,17.10
2011,08,23,01,01,17.20
2011,08,23,01,02,17.20
2011,08,23,01,03,17.20
2011,08,23,01,04,17.20
2011,08,23,01,05,17.20
2011,08,23,01,06,17.20
2011,08,23,01,07,17.20
2011,08,23,01,08,17.20
2011,08,23,01,09,17.10
2011,08,23,01,10,17.10
2011,08,23,01,11,17.10
2011,08,23,01,12,17.00
2011,08,23,01,13,17.00
2011,08,23,01,14,17.00
2011,08,23,01,15,17.00
2011,08,23,01,16,17.00
2011,08,23,01,17,17.00
2011,08,23,01,18,17.10
2011,08,23,01,19,17.10
2011,08,23,01,20,17.10
2011,08,23,01,21,17.10
2011,08,23,01,22,17.10
2011,08,23,01,23,17.10
2011,08,23,01,24,17.20
2011,08,23,01,25,17.20
2011,08,23,01,26,17.20
2011,08,23,01,27,17.20
2011,08,23,01,28,17.30
2011,08,23,01,29,17.30
2011,08,23,01,30,17.30
2011,08,23,01,31,17.30
2011,08,23,01,32,17.30
2011,08,23,01,33,17.30
2011,08,23,01,34,17.30
2011,08,23,01,35,17.30
2011,08,23,01,36,17.30
2011,08,23,01,37,17.30
2011,08,23,01,38,17.30
2011,08,23,01,39,17.30
2011,08,23,01,40,17.30
2011,08,23,01,41,17.30
2011,08,23,01,42,17.30
2011,08,23,01,43,17.30
2011,08,23,01,44,17.30
2011,08,23,01,45,17.30
2011,08,23,01,46,17.30
2011,08,23,01,47,17.30
2011,08,23,01,48,17.30
2011,08,23,01,49,17.30
2011,08,23,01,50,17.30
2011,08,23,01,51,17.20
2011,08,23,01,52,17.20
2011,08,23,01,53,17.20
2011,08,23,01,54,17.20
2011,08,23,01,55,17.20
2011,08,23,01,56,17.20
2011,08,23,01,57,17.20
2011,08,23,01,58,17.20
2011,08,23,01,59,17.20
2011,08,23,02,00,17.20
2011,08,23,02,01,17.20
2011,08,23,02,02,17.20
2011,08,23,02,03,17.20
2011,08,23,02,04,17.20
2011,08,23,02,05,17.20
2011,08,23,02,06,17.20
2011,08,23,02,07,17.20
2011,08,23,02,08,17.20
2011,08,23,02,09,17.20
2011,08,23,02,10,17.20
2011,08,23,02,11,17.20
2011,08,23,02,12,17.20
2011,08,23,02,13,17.20
2011,08,23,02,14,17.20
2011,08,23,02,15,17.20
2011,08,23,02,16,17.10
2011,08,23,02,17,17.10
2011,08,23,02,18,17.10
2011,08,23,02,19,17.10
2011,08,23,02,20,17.10
2011,08,23,02,21,17.10
2011,08,23,02,22,17.10
2011,08,23,02,23,17.00
2011,08,23,02,24,17.00
2011,08,23,02,25,17.00
2011,08,23,02,26,17.00
2011,08,23,02,27,16.90
2011,08,23,02,28,16.90
2011,08,23,02,29,16.90
2011,08,23,02,30,16.90
2011,08,23,02,31,16.80
2011,08,23,02,32,16.80
2011,08,23,02,33,16.80
2011,08,23,02,34,16.80
2011,08,23,02,35,16.80
2011,08,23,02,36,16.80
2011,08,23,02,37,16.70
2011,08,23,02,38,16.70
2011,08,23,02,39,16.70
2011,08,23,02,40,16.70
2011,08,23,02,41,16.70
2011,08,23,02,42,16.70
2011,08,23,02,43,16.70
2011,08,23,02,44,16.70
2011,08,23,02,45,16.70
2011,08,23,02,46,16.70
2011,08,23,02,47,16.70
2011,08,23,02,48,16.70
2011,08,23,02,49,16.70
2011,08,23,02,50,16.70
2011,08,23,02,51,16.70
2011,08,23,02,52,16.70
2011,08,23,02,53,16.70
2011,08,23,02,54,16.70
2011,08,23,02,55,16.70
2011,08,23,02,56,16.70
2011,08,23,02,57,16.70
2011,08,23,02,58,16.70
2011,08,23,02,59,16.70
2011,08,23,03,00,16.70
2011,08,23,03,01,16.70
2011,08,23,03,02,16.80
2011,08,23,03,03,16.80
2011,08,23,03,04,16.80
2011,08,23,03,05,16.80
2011,08,23,03,06,16.80
2011,08,23,03,07,16.80
2011,08,23,03,08,16.80
2011,08,23,03,09,16.80
2011,08,23,03,10,16.80
2011,08,23,03,11,16.80
2011,08,23,03,12,16.80
2011,08,23,03,13,16.80
2011,08,23,03,14,16.80
2011,08,23,03,15,16.80
2011,08,23,03,16,16.80
2011,08,23,03,17,16.80
2011,08,23,03,18,16.80
2011,08,23,03,19,16.80
2011,08,23,03,20,16.80
2011,08,23,03,21,16.80
2011,08,23,03,22,16.90
2011,08,23,03,23,16.80
2011,08,23,03,24,16.80
2011,08,23,03,25,16.80
2011,08,23,03,26,16.80
2011,08,23,03,27,16.80
2011,08,23,03,28,16.80
2011,08,23,03,29,16.80
2011,08,23,03,30,16.80
2011,08,23,03,31,16.80
2011,08,23,03,32,16.80
2011,08,23,03,33,16.80
2011,08,23,03,34,16.80
2011,08,23,03,35,16.70
2011,08,23,03,36,16.70
2011,08,23,03,37,16.70
2011,08,23,03,38,16.70
2011,08,23,03,39,16.70
2011,08,23,03,40,16.70
2011,08,23,03,41,16.70
2011,08,23,03,42,16.70
2011,08,23,03,43,16.70
2011,08,23,03,44,16.70
2011,08,23,03,45,16.70
2011,08,23,03,46,16.70
2011,08,23,03,47,16.70
2011,08,23,03,48,16.70
2011,08,23,03,49,16.70
2011,08,23,03,50,16.70
2011,08,23,03,51,16.70
2011,08,23,03,52,16.70
2011,08,23,03,53,16.70
2011,08,23,03,54,16.70
2011,08,23,03,55,16.70
2011,08,23,03,56,16.70
2011,08,23,03,57,16.70
2011,08,23,03,58,16.70
2011,08,23,03,59,16.70
2011,08,23,04,00,16.70
2011,08,23,04,01,16.80
2011,08,23,04,02,16.80
2011,08,23,04,03,16.80
2011,08,23,04,04,16.80
2011,08,23,04,05,16.80
2011,08,23,04,06,16.80
2011,08,23,04,07,16.80
2011,08,23,04,08,16.80
2011,08,23,04,09,16.80
2011,08,23,04,10,16.80
2011,08,23,04,11,16.80
2011,08,23,04,12,16.80
2011,08,23,04,13,16.80
2011,08,23,04,14,16.80
2011,08,23,04,15,16.80
2011,08,23,04,16,16.80
2011,08,23,04,17,16.80
2011,08,23,04,18,16.80
2011,08,23,04,19,16.80
2011,08,23,04,20,16.80
2011,08,23,04,21,16.80
2011,08,23,04,22,16.80
2011,08,23,04,23,16.80
2011,08,23,04,24,16.90
2011,08,23,04,25,16.80
2011,08,23,04,26,16.90
2011,08,23,04,27,16.80
2011,08,23,04,28,16.80
2011,08,23,04,29,16.80
2011,08,23,04,30,16.80
2011,08,23,04,31,16.80
2011,08,23,04,32,16.80
2011,08,23,04,33,16.80
2011,08,23,04,34,16.80
2011,08,23,04,35,16.80
2011,08,23,04,36,16.80
2011,08,23,04,37,16.70
2011,08,23,04,38,16.70
2011,08,23,04,39,16.70
2011,08,23,04,40,16.70
2011,08,23,04,41,16.70
2011,08,23,04,42,16.70
2011,08,23,04,43,16.70
2011,08,23,04,44,16.70
2011,08,23,04,45,16.70
2011,08,23,04,46,16.70
2011,08,23,04,47,16.70
2011,08,23,04,48,16.70
2011,08,23,04,49,16.70
2011,08,23,04,50,16.70
2011,08,23,04,51,16.70
2011,08,23,04,52,16.70
2011,08,23,04,53,16.70
2011,08,23,04,54,16.70
2011,08,23,04,55,16.70
2011,08,23,04,56,16.70
2011,08,23,04,57,16.70
2011,08,23,04,58,16.70
2011,08,23,04,59,16.70
2011,08,23,05,00,16.70
2011,08,23,05,01,16.80
2011,08,23,05,02,16.80
2011,08,23,05,03,16.80
2011,08,23,05,04,16.80
2011,08,23,05,05,16.80
2011,08,23,05,06,16.80
2011,08,23,05,07,16.80
2011,08,23,05,08,16.80
2011,08,23,05,09,16.80
2011,08,23,05,10,16.80
2011,08,23,05,11,16.80
2011,08,23,05,12,16.80
2011,08,23,05,13,16.80
2011,08,23,05,14,16.80
2011,08,23,05,15,16.80
2011,08,23,05,16,16.80
2011,08,23,05,17,16.80
2011,08,23,05,18,16.90
2011,08,23,05,19,16.90
2011,08,23,05,20,16.90
2011,08,23,05,21,16.90
2011,08,23,05,22,17.00
2011,08,23,05,23,17.00
2011,08,23,05,24,17.00
2011,08,23,05,25,17.00
2011,08,23,05,26,17.00
2011,08,23,05,27,17.00
2011,08,23,05,28,17.00
2011,08,23,05,29,17.00
2011,08,23,05,30,17.00
2011,08,23,05,31,17.00
2011,08,23,05,32,17.00
2011,08,23,05,33,17.00
2011,08,23,05,34,17.00
2011,08,23,05,35,17.00
2011,08,23,05,36,17.00
2011,08,23,05,37,17.00
2011,08,23,05,38,17.00
2011,08,23,05,39,17.00
2011,08,23,05,40,17.00
2011,08,23,05,41,17.00
2011,08,23,05,42,17.00
2011,08,23,05,43,17.00
2011,08,23,05,44,17.00
2011,08,23,05,45,17.00
2011,08,23,05,46,17.00
2011,08,23,05,47,16.90
2011,08,23,05,48,16.90
2011,08,23,05,49,16.90
2011,08,23,05,50,16.90
2011,08,23,05,51,16.90
2011,08,23,05,52,16.90
2011,08,23,05,53,16.90
2011,08,23,05,54,16.80
2011,08,23,05,55,16.80
2011,08,23,05,56,16.80
2011,08,23,05,57,16.80
2011,08,23,05,58,16.80
2011,08,23,05,59,16.80
2011,08,23,06,00,16.80
2011,08,23,06,01,16.80
2011,08,23,06,02,16.80
2011,08,23,06,03,16.80
2011,08,23,06,04,16.80
2011,08,23,06,05,16.80
2011,08,23,06,06,16.80
2011,08,23,06,07,16.80
2011,08,23,06,08,16.80
2011,08,23,06,09,16.80
2011,08,23,06,10,16.80
2011,08,23,06,11,16.80
2011,08,23,06,12,16.80
2011,08,23,06,13,16.80
2011,08,23,06,14,16.80
2011,08,23,06,15,16.80
2011,08,23,06,16,16.80
2011,08,23,06,17,16.70
2011,08,23,06,18,16.70
2011,08,23,06,19,16.70
2011,08,23,06,20,16.70
2011,08,23,06,21,16.70
2011,08,23,06,22,16.70
2011,08,23,06,23,16.60
2011,08,23,06,24,16.60
2011,08,23,06,25,16.60
2011,08,23,06,26,16.50
2011,08,23,06,27,16.50
2011,08,23,06,28,16.40
2011,08,23,06,29,16.40
2011,08,23,06,30,16.30
2011,08,23,06,31,16.30
2011,08,23,06,32,16.30
2011,08,23,06,33,16.20
2011,08,23,06,34,16.20
2011,08,23,06,35,16.20
2011,08,23,06,36,16.20
2011,08,23,06,37,16.20
2011,08,23,06,38,16.20
2011,08,23,06,39,16.20
2011,08,23,06,40,16.20
2011,08,23,06,41,16.30
2011,08,23,06,42,16.30
2011,08,23,06,43,16.30
2011,08,23,06,44,16.30
2011,08,23,06,45,16.30
2011,08,23,06,46,16.30
2011,08,23,06,47,16.30
2011,08,23,06,48,16.30
2011,08,23,06,49,16.30
2011,08,23,06,50,16.30
2011,08,23,06,51,16.30
2011,08,23,06,52,16.20
2011,08,23,06,53,16.20
2011,08,23,06,54,16.20
2011,08,23,06,55,16.20
2011,08,23,06,56,16.20
2011,08,23,06,57,16.20
2011,08,23,06,58,16.20
2011,08,23,06,59,16.20
2011,08,23,07,00,16.20
2011,08,23,07,01,16.20
2011,08,23,07,02,16.20
2011,08,23,07,03,16.20
2011,08,23,07,04,16.20
2011,08,23,07,05,16.20
2011,08,23,07,06,16.20
2011,08,23,07,07,16.20
2011,08,23,07,08,16.20
2011,08,23,07,09,16.10
2011,08,23,07,10,16.10
2011,08,23,07,11,16.10
2011,08,23,07,12,16.10
2011,08,23,07,13,16.10
2011,08,23,07,14,16.10
2011,08,23,07,15,16.00
2011,08,23,07,16,16.00
2011,08,23,07,17,16.00
2011,08,23,07,18,16.00
2011,08,23,07,19,16.00
2011,08,23,07,20,16.10
2011,08,23,07,21,16.10
2011,08,23,07,22,16.10
2011,08,23,07,23,16.10
2011,08,23,07,24,16.10
2011,08,23,07,25,16.20
2011,08,23,07,26,16.10
2011,08,23,07,27,16.10
2011,08,23,07,28,16.10
2011,08,23,07,29,16.10
2011,08,23,07,30,16.10
2011,08,23,07,31,16.10
2011,08,23,07,32,16.20
2011,08,23,07,33,16.20
2011,08,23,07,34,16.20
2011,08,23,07,35,16.20
2011,08,23,07,36,16.20
2011,08,23,07,37,16.20
2011,08,23,07,38,16.20
2011,08,23,07,39,16.30
2011,08,23,07,40,16.30
2011,08,23,07,41,16.30
2011,08,23,07,42,16.40
2011,08,23,07,43,16.40
2011,08,23,07,44,16.40
2011,08,23,07,45,16.50
2011,08,23,07,46,16.50
2011,08,23,07,47,16.50
2011,08,23,07,48,16.50
2011,08,23,07,49,16.50
2011,08,23,07,50,16.70
2011,08,23,07,51,16.70
2011,08,23,07,52,16.70
2011,08,23,07,53,16.70
2011,08,23,07,54,16.70
2011,08,23,07,55,16.70
2011,08,23,07,56,16.80
2011,08,23,07,57,16.80
2011,08,23,07,58,16.80
2011,08,23,07,59,16.80
2011,08,23,08,00,16.80
2011,08,23,08,01,16.70
2011,08,23,08,02,16.70
2011,08,23,08,03,16.70
2011,08,23,08,04,16.60
2011,08,23,08,05,16.60
2011,08,23,08,06,16.60
2011,08,23,08,07,16.50
2011,08,23,08,08,16.50
2011,08,23,08,09,16.50
2011,08,23,08,10,16.50
2011,08,23,08,11,16.50
2011,08,23,08,12,16.50
2011,08,23,08,13,16.50
2011,08,23,08,14,16.50
2011,08,23,08,15,16.50
2011,08,23,08,16,16.50
2011,08,23,08,17,16.50
2011,08,23,08,18,16.50
2011,08,23,08,19,16.50
2011,08,23,08,20,16.40
2011,08,23,08,21,16.40
2011,08,23,08,22,16.50
2011,08,23,08,23,16.50
2011,08,23,08,24,16.50
2011,08,23,08,25,16.40
2011,08,23,08,26,16.40
2011,08,23,08,27,16.40
2011,08,23,08,28,16.50
2011,08,23,08,29,16.50
2011,08,23,08,30,16.50
2011,08,23,08,31,16.50
2011,08,23,08,32,16.60
2011,08,23,08,33,16.60
2011,08,23,08,34,16.70
2011,08,23,08,35,16.70
2011,08,23,08,36,16.80
2011,08,23,08,37,16.80
2011,08,23,08,38,16.90
2011,08,23,08,39,16.90
2011,08,23,08,40,17.00
2011,08,23,08,41,17.10
2011,08,23,08,42,17.10
2011,08,23,08,43,17.20
2011,08,23,08,44,17.20
2011,08,23,08,45,17.20
2011,08,23,08,46,17.30
2011,08,23,08,47,17.30
2011,08,23,08,48,17.30
2011,08,23,08,49,17.30
2011,08,23,08,50,17.30
2011,08,23,08,51,17.40
2011,08,23,08,52,17.40
2011,08,23,08,53,17.40
2011,08,23,08,54,17.40
2011,08,23,08,55,17.50
2011,08,23,08,56,17.50
2011,08,23,08,57,17.50
2011,08,23,08,58,17.60
2011,08,23,08,59,17.60
2011,08,23,09,00,17.70
2011,08,23,09,01,17.70
2011,08,23,09,02,17.70
2011,08,23,09,03,17.70
2011,08,23,09,04,17.70
2011,08,23,09,05,17.70
2011,08,23,09,06,17.70
2011,08,23,09,07,17.80
2011,08,23,09,08,17.80
2011,08,23,09,09,17.80
2011,08,23,09,10,17.80
2011,08,23,09,11,17.80
2011,08,23,09,12,17.90
2011,08,23,09,13,17.90
2011,08,23,09,14,17.90
2011,08,23,09,15,17.90
2011,08,23,09,16,18.00
2011,08,23,09,17,18.00
2011,08,23,09,18,18.10
2011,08,23,09,19,18.10
2011,08,23,09,20,18.10
2011,08,23,09,21,18.10
2011,08,23,09,22,18.20
2011,08,23,09,23,18.20
2011,08,23,09,24,18.30
2011,08,23,09,25,18.30
2011,08,23,09,26,18.30
2011,08,23,09,27,18.40
2011,08,23,09,28,18.40
2011,08,23,09,29,18.40
2011,08,23,09,30,18.40
2011,08,23,09,31,18.40
2011,08,23,09,32,18.40
2011,08,23,09,33,18.50
2011,08,23,09,34,18.50
2011,08,23,09,35,18.50
2011,08,23,09,36,18.50
2011,08,23,09,37,18.60
2011,08,23,09,38,18.60
2011,08,23,09,39,18.60
2011,08,23,09,40,18.70
2011,08,23,09,41,18.70
2011,08,23,09,42,18.70
2011,08,23,09,43,18.70
2011,08,23,09,44,18.70
2011,08,23,09,45,18.70
2011,08,23,09,46,18.80
2011,08,23,09,47,18.80
2011,08,23,09,48,18.80
2011,08,23,09,49,18.80
2011,08,23,09,50,18.80
2011,08,23,09,51,18.80
2011,08,23,09,52,18.80
2011,08,23,09,53,18.90
2011,08,23,09,54,19.00
2011,08,23,09,55,19.10
2011,08,23,09,56,19.20
2011,08,23,09,57,19.20
2011,08,23,09,58,19.20
2011,08,23,09,59,19.20
2011,08,23,10,00,19.20
2011,08,23,10,01,19.20
2011,08,23,10,02,19.20
2011,08,23,10,03,19.20
2011,08,23,10,04,19.20
2011,08,23,10,05,19.20
2011,08,23,10,06,19.20
2011,08,23,10,07,19.20
2011,08,23,10,08,19.20
2011,08,23,10,09,19.20
2011,08,23,10,10,19.30
2011,08,23,10,11,19.30
2011,08,23,10,12,19.30
2011,08,23,10,13,19.30
2011,08,23,10,14,19.30
2011,08,23,10,15,19.30
2011,08,23,10,16,19.30
2011,08,23,10,17,19.30
2011,08,23,10,18,19.20
2011,08,23,10,19,19.20
2011,08,23,10,20,19.30
2011,08,23,10,21,19.30
2011,08,23,10,22,19.30
2011,08,23,10,23,19.30
2011,08,23,10,24,19.20
2011,08,23,10,25,19.20
2011,08,23,10,26,19.30
2011,08,23,10,27,19.30
2011,08,23,10,28,19.30
2011,08,23,10,29,19.30
2011,08,23,10,30,19.40
2011,08,23,10,31,19.50
2011,08,23,10,32,19.60
2011,08,23,10,33,19.60
2011,08,23,10,34,19.70
2011,08,23,10,35,19.70
2011,08,23,10,36,19.70
2011,08,23,10,37,19.60
2011,08,23,10,38,19.60
2011,08,23,10,39,19.60
2011,08,23,10,40,19.60
2011,08,23,10,41,19.60
2011,08,23,10,42,19.50
2011,08,23,10,43,19.50
2011,08,23,10,44,19.40
2011,08,23,10,45,19.40
2011,08,23,10,46,19.40
2011,08,23,10,47,19.40
2011,08,23,10,48,19.40
2011,08,23,10,49,19.40
2011,08,23,10,50,19.40
2011,08,23,10,51,19.40
2011,08,23,10,52,19.40
2011,08,23,10,53,19.30
2011,08,23,10,54,19.30
2011,08,23,10,55,19.30
2011,08,23,10,56,19.30
2011,08,23,10,57,19.30
2011,08,23,10,58,19.30
2011,08,23,10,59,19.30
2011,08,23,11,00,19.30
2011,08,23,11,01,19.30
2011,08,23,11,02,19.30
2011,08,23,11,03,19.30
2011,08,23,11,04,19.40
2011,08,23,11,05,19.40
2011,08,23,11,06,19.40
2011,08,23,11,07,19.40
2011,08,23,11,08,19.40
2011,08,23,11,09,19.50
2011,08,23,11,10,19.50
2011,08,23,11,11,19.60
2011,08,23,11,12,19.60
2011,08,23,11,13,19.60
2011,08,23,11,14,19.70
2011,08,23,11,15,19.70
2011,08,23,11,16,19.80
2011,08,23,11,17,19.80
2011,08,23,11,18,19.90
2011,08,23,11,19,19.90
2011,08,23,11,20,19.90
2011,08,23,11,21,19.90
2011,08,23,11,22,20.00
2011,08,23,11,23,20.00
2011,08,23,11,24,20.00
2011,08,23,11,25,20.00
2011,08,23,11,26,20.00
2011,08,23,11,27,20.00
2011,08,23,11,28,20.00
2011,08,23,11,29,20.00
2011,08,23,11,30,20.10
2011,08,23,11,31,20.10
2011,08,23,11,32,20.10
2011,08,23,11,33,20.10
2011,08,23,11,34,20.10
2011,08,23,11,35,20.10
2011,08,23,11,36,20.10
2011,08,23,11,37,20.10
2011,08,23,11,38,20.10
2011,08,23,11,39,20.10
2011,08,23,11,40,20.20
2011,08,23,11,41,20.20
2011,08,23,11,42,20.30
2011,08,23,11,43,20.30
2011,08,23,11,44,20.30
2011,08,23,11,45,20.30
2011,08,23,11,46,20.30
2011,08,23,11,47,20.20
2011,08,23,11,48,20.20
2011,08,23,11,49,20.20
2011,08,23,11,50,20.20
2011,08,23,11,51,20.20
2011,08,23,11,52,20.20
2011,08,23,11,53,20.20
2011,08,23,11,54,20.20
2011,08,23,11,55,20.20
2011,08,23,11,56,20.20
2011,08,23,11,57,20.20
2011,08,23,11,58,20.20
2011,08,23,11,59,20.20
2011,08,23,12,00,20.20
2011,08,23,12,01,20.20
2011,08,23,12,02,20.30
2011,08,23,12,03,20.30
2011,08,23,12,04,20.30
2011,08,23,12,05,20.30
2011,08,23,12,06,20.30
2011,08,23,12,07,20.40
2011,08,23,12,08,20.40
2011,08,23,12,09,20.40
2011,08,23,12,10,20.50
2011,08,23,12,11,20.50
2011,08,23,12,12,20.50
2011,08,23,12,13,20.40
2011,08,23,12,14,20.40
2011,08,23,12,15,20.40
2011,08,23,12,16,20.40
2011,08,23,12,17,20.40
2011,08,23,12,18,20.50
2011,08,23,12,19,20.50
2011,08,23,12,20,20.60
2011,08,23,12,21,20.70
2011,08,23,12,22,20.70
2011,08,23,12,23,20.80
2011,08,23,12,24,20.70
2011,08,23,12,25,20.70
2011,08,23,12,26,20.70
2011,08,23,12,27,20.80
2011,08,23,12,28,20.80
2011,08,23,12,29,20.80
2011,08,23,12,30,20.80
2011,08,23,12,31,20.80
2011,08,23,12,32,20.80
2011,08,23,12,33,20.90
2011,08,23,12,34,20.90
2011,08,23,12,35,20.90
2011,08,23,12,36,20.90
2011,08,23,12,37,20.90
2011,08,23,12,38,20.90
2011,08,23,12,39,20.80
2011,08,23,12,40,20.80
2011,08,23,12,41,20.80
2011,08,23,12,42,20.90
2011,08,23,12,43,21.00
2011,08,23,12,44,21.00
2011,08,23,12,45,21.10
2011,08,23,12,46,21.10
2011,08,23,12,47,21.10
2011,08,23,12,48,21.10
2011,08,23,12,49,21.10
2011,08,23,12,50,21.10
2011,08,23,12,51,21.10
2011,08,23,12,52,21.10
2011,08,23,12,53,21.10
2011,08,23,12,54,21.20
2011,08,23,12,55,21.20
2011,08,23,12,56,21.20
2011,08,23,12,57,21.30
2011,08,23,12,58,21.30
2011,08,23,12,59,21.30
2011,08,23,13,00,21.30
2011,08,23,13,01,21.20
2011,08,23,13,02,21.20
2011,08,23,13,03,21.10
2011,08,23,13,04,21.10
2011,08,23,13,05,21.00
2011,08,23,13,06,21.00
2011,08,23,13,07,21.00
2011,08,23,13,08,21.00
2011,08,23,13,09,21.10
2011,08,23,13,10,21.10
2011,08,23,13,11,21.10
2011,08,23,13,12,21.00
2011,08,23,13,13,21.00
2011,08,23,13,14,20.90
2011,08,23,13,15,20.80
2011,08,23,13,16,20.80
2011,08,23,13,17,20.90
2011,08,23,13,18,20.90
2011,08,23,13,19,20.90
2011,08,23,13,20,20.90
2011,08,23,13,21,21.00
2011,08,23,13,22,21.00
2011,08,23,13,23,21.00
2011,08,23,13,24,21.00
2011,08,23,13,25,21.00
2011,08,23,13,26,21.10
2011,08,23,13,27,21.10
2011,08,23,13,28,21.10
2011,08,23,13,29,21.10
2011,08,23,13,30,21.10
2011,08,23,13,31,21.20
2011,08,23,13,32,21.20
2011,08,23,13,33,21.20
2011,08,23,13,34,21.20
2011,08,23,13,35,21.20
2011,08,23,13,36,21.20
2011,08,23,13,37,21.20
2011,08,23,13,38,21.20
2011,08,23,13,39,21.20
2011,08,23,13,40,21.20
2011,08,23,13,41,21.20
2011,08,23,13,42,21.30
2011,08,23,13,43,21.40
2011,08,23,13,44,21.40
2011,08,23,13,45,21.50
2011,08,23,13,46,21.50
2011,08,23,13,47,21.40
2011,08,23,13,48,21.40
2011,08,23,13,49,21.40
2011,08,23,13,50,21.30
2011,08,23,13,51,21.30
2011,08,23,13,52,21.30
2011,08,23,13,53,21.30
2011,08,23,13,54,21.30
2011,08,23,13,55,21.30
2011,08,23,13,56,21.30
2011,08,23,13,57,21.30
2011,08,23,13,58,21.40
2011,08,23,13,59,21.40
2011,08,23,14,00,21.50
2011,08,23,14,01,21.50
2011,08,23,14,02,21.50
2011,08,23,14,03,21.50
2011,08,23,14,04,21.50
2011,08,23,14,05,21.50
2011,08,23,14,06,21.50
2011,08,23,14,07,21.50
2011,08,23,14,08,21.60
2011,08,23,14,09,21.60
2011,08,23,14,10,21.60
2011,08,23,14,11,21.60
2011,08,23,14,12,21.70
2011,08,23,14,13,21.70
2011,08,23,14,14,21.70
2011,08,23,14,15,21.70
2011,08,23,14,16,21.70
2011,08,23,14,17,21.70
2011,08,23,14,18,21.60
2011,08,23,14,19,21.60
2011,08,23,14,20,21.60
2011,08,23,14,21,21.60
2011,08,23,14,22,21.60
2011,08,23,14,23,21.60
2011,08,23,14,24,21.60
2011,08,23,14,25,21.60
2011,08,23,14,26,21.60
2011,08,23,14,27,21.70
2011,08,23,14,28,21.70
2011,08,23,14,29,21.70
2011,08,23,14,30,21.70
2011,08,23,14,31,21.60
2011,08,23,14,32,21.50
2011,08,23,14,33,21.50
2011,08,23,14,34,21.50
2011,08,23,14,35,21.40
2011,08,23,14,36,21.50
2011,08,23,14,37,21.40
2011,08,23,14,38,21.50
2011,08,23,14,39,21.50
2011,08,23,14,40,21.50
2011,08,23,14,41,21.50
2011,08,23,14,42,21.50
2011,08,23,14,43,21.50
2011,08,23,14,44,21.40
2011,08,23,14,45,21.50
2011,08,23,14,46,21.50
2011,08,23,14,47,21.60
2011,08,23,14,48,21.70
2011,08,23,14,49,21.60
2011,08,23,14,50,21.60
2011,08,23,14,51,21.60
2011,08,23,14,52,21.60
2011,08,23,14,53,21.60
2011,08,23,14,54,21.60
2011,08,23,14,55,21.60
2011,08,23,14,56,21.60
2011,08,23,14,57,21.60
2011,08,23,14,58,21.60
2011,08,23,14,59,21.70
2011,08,23,15,00,21.80
2011,08,23,15,01,21.80
2011,08,23,15,02,21.80
2011,08,23,15,03,21.80
2011,08,23,15,04,21.90
2011,08,23,15,05,21.90
2011,08,23,15,06,21.80
2011,08,23,15,07,21.80
2011,08,23,15,08,21.80
2011,08,23,15,09,21.80
2011,08,23,15,10,21.80
2011,08,23,15,11,21.90
2011,08,23,15,12,21.90
2011,08,23,15,13,21.90
2011,08,23,15,14,21.80
2011,08,23,15,15,21.80
2011,08,23,15,16,21.80
2011,08,23,15,17,21.80
2011,08,23,15,18,21.80
2011,08,23,15,19,21.80
2011,08,23,15,20,21.80
2011,08,23,15,21,21.90
2011,08,23,15,22,21.90
2011,08,23,15,23,22.00
2011,08,23,15,24,22.00
2011,08,23,15,25,22.00
2011,08,23,15,26,22.00
2011,08,23,15,27,22.00
2011,08,23,15,28,21.90
2011,08,23,15,29,21.90
2011,08,23,15,30,21.90
2011,08,23,15,31,22.00
2011,08,23,15,32,22.00
2011,08,23,15,33,22.10
2011,08,23,15,34,22.20
2011,08,23,15,35,22.30
2011,08,23,15,36,22.40
2011,08,23,15,37,22.40
2011,08,23,15,38,22.50
2011,08,23,15,39,22.60
2011,08,23,15,40,22.60
2011,08,23,15,41,22.60
2011,08,23,15,42,22.70
2011,08,23,15,43,22.70
2011,08,23,15,44,22.70
2011,08,23,15,45,22.70
2011,08,23,15,46,22.70
2011,08,23,15,47,22.70
2011,08,23,15,48,22.80
2011,08,23,15,49,22.80
2011,08,23,15,50,22.80
2011,08,23,15,51,22.80
2011,08,23,15,52,22.80
2011,08,23,15,53,22.80
2011,08,23,15,54,22.70
2011,08,23,15,55,22.60
2011,08,23,15,56,22.60
2011,08,23,15,57,22.70
2011,08,23,15,58,22.80
2011,08,23,15,59,22.90
2011,08,23,16,00,23.00
2011,08,23,16,01,23.00
2011,08,23,16,02,22.90
2011,08,23,16,03,22.80
2011,08,23,16,04,22.90
2011,08,23,16,05,22.90
2011,08,23,16,06,23.00
2011,08,23,16,07,23.00
2011,08,23,16,08,23.00
2011,08,23,16,09,22.90
2011,08,23,16,10,22.80
2011,08,23,16,11,22.60
2011,08,23,16,12,22.50
2011,08,23,16,13,22.40
2011,08,23,16,14,22.30
2011,08,23,16,15,22.20
2011,08,23,16,16,22.30
2011,08,23,16,17,22.30
2011,08,23,16,18,22.40
2011,08,23,16,19,22.50
2011,08,23,16,20,22.60
2011,08,23,16,21,22.60
2011,08,23,16,22,22.60
2011,08,23,16,23,22.60
2011,08,23,16,24,22.70
2011,08,23,16,25,22.60
2011,08,23,16,26,22.60
2011,08,23,16,27,22.50
2011,08,23,16,28,22.50
2011,08,23,16,29,22.40
2011,08,23,16,30,22.40
2011,08,23,16,31,22.50
2011,08,23,16,32,22.40
2011,08,23,16,33,22.40
2011,08,23,16,34,22.40
2011,08,23,16,35,22.50
2011,08,23,16,36,22.50
2011,08,23,16,37,22.50
2011,08,23,16,38,22.60
2011,08,23,16,39,22.50
2011,08,23,16,40,22.40
2011,08,23,16,41,22.30
2011,08,23,16,42,22.30
2011,08,23,16,43,22.30
2011,08,23,16,44,22.30
2011,08,23,16,45,22.30
2011,08,23,16,46,22.40
2011,08,23,16,47,22.40
2011,08,23,16,48,22.40
2011,08,23,16,49,22.40
2011,08,23,16,50,22.40
2011,08,23,16,51,22.40
2011,08,23,16,52,22.40
2011,08,23,16,53,22.40
2011,08,23,16,54,22.50
2011,08,23,16,55,22.60
2011,08,23,16,56,22.60
2011,08,23,16,57,22.70
2011,08,23,16,58,22.80
2011,08,23,16,59,22.80
2011,08,23,17,00,22.80
2011,08,23,17,01,22.80
2011,08,23,17,02,22.80
2011,08,23,17,03,22.80
2011,08,23,17,04,22.80
2011,08,23,17,05,22.80
2011,08,23,17,06,22.70
2011,08,23,17,07,22.60
2011,08,23,17,08,22.60
2011,08,23,17,09,22.50
2011,08,23,17,10,22.50
2011,08,23,17,11,22.40
2011,08,23,17,12,22.40
2011,08,23,17,13,22.40
2011,08,23,17,14,22.40
2011,08,23,17,15,22.50
2011,08,23,17,16,22.50
2011,08,23,17,17,22.50
2011,08,23,17,18,22.40
2011,08,23,17,19,22.40